TimeAKST,TemperatureF,Dew PointF,Humidity,Sea Level PressureIn,VisibilityMPH,Wind Direction,Wind SpeedMPH,Gust SpeedMPH,PrecipitationIn,Events,Conditions,WindDirDegrees,DateUTC
12:16 AM,37.4,33.8,87,29.66,10.0,ESE,5.8,-,N/A,,Overcast,110,2013-02-20 09:16:00
12:36 AM,37.4,33.8,87,29.64,9.0,East,10.4,-,0.01,,Overcast,90,2013-02-20 09:36:00
12:56 AM,37.4,33.8,87,29.64,10.0,ESE,3.5,-,0.01,,Overcast,110,2013-02-20 09:56:00
1:16 AM,37.4,33.8,87,29.64,10.0,Calm,Calm,-,N/A,,Overcast,0,2013-02-20 10:16:00
1:36 AM,37.4,33.8,87,29.64,9.0,Calm,Calm,-,0.03,,Overcast,0,2013-02-20 10:36:00
1:56 AM,35.6,33.8,93,29.62,9.0,Calm,Calm,-,0.06,,Overcast,0,2013-02-20 10:56:00
2:16 AM,35.6,33.8,93,29.61,10.0,Calm,Calm,-,0.01,,Overcast,0,2013-02-20 11:16:00
2:36 AM,35.6,33.8,93,29.61,10.0,Calm,Calm,-,0.03,,Overcast,0,2013-02-20 11:36:00
2:56 AM,35.6,33.8,93,29.60,8.0,Calm,Calm,-,0.05,,Overcast,0,2013-02-20 11:56:00
3:16 AM,35.6,32.0,87,29.59,10.0,Calm,Calm,-,0.02,,Overcast,0,2013-02-20 12:16:00
3:36 AM,35.6,32.0,87,29.58,10.0,Calm,Calm,-,0.05,,Overcast,0,2013-02-20 12:36:00
3:56 AM,35.6,32.0,87,29.58,10.0,Calm,Calm,-,0.06,,Overcast,0,2013-02-20 12:56:00
4:16 AM,33.8,32.0,93,29.57,10.0,Calm,Calm,-,0.02,,Overcast,0,2013-02-20 13:16:00
4:36 AM,33.8,30.2,87,29.57,10.0,Calm,Calm,-,0.04,,Overcast,0,2013-02-20 13:36:00
4:56 AM,33.8,30.2,87,29.57,10.0,Calm,Calm,-,0.06,,Overcast,0,2013-02-20 13:56:00
5:16 AM,33.8,30.2,87,29.56,7.0,Calm,Calm,-,0.03,,Overcast,0,2013-02-20 14:16:00
5:36 AM,33.8,30.2,87,29.56,8.0,Calm,Calm,-,0.05,,Overcast,0,2013-02-20 14:36:00
6:55 AM,35.6,32.0,87,29.56,4.0,Calm,Calm,-,N/A,Rain-Snow,Light Rain,0,2013-02-20 15:55:00
8:33 AM,33.8,30.2,87,29.58,5.0,Calm,Calm,-,N/A,Rain-Snow,Light Rain,0,2013-02-20 17:33:00
8:36 AM,33.8,32.0,93,29.58,5.0,Calm,Calm,-,N/A,,Overcast,0,2013-02-20 17:36:00
8:56 AM,33.8,32.0,93,29.58,-9999.0,NNE,3.5,-,N/A,,Unknown,30,2013-02-20 17:56:00
9:16 AM,35.6,32.0,87,29.58,10.0,Calm,Calm,-,N/A,,Mostly Cloudy,0,2013-02-20 18:16:00
9:36 AM,35.6,33.8,93,29.58,10.0,SSW,3.5,-,N/A,,Mostly Cloudy,210,2013-02-20 18:36:00
9:56 AM,37.4,32.0,81,29.59,10.0,South,9.2,-,N/A,,Mostly Cloudy,180,2013-02-20 18:56:00
10:16 AM,39.2,32.0,75,29.59,10.0,SSE,5.8,-,N/A,,Mostly Cloudy,150,2013-02-20 19:16:00
10:36 AM,37.4,33.8,87,29.59,10.0,East,10.4,-,N/A,,Mostly Cloudy,100,2013-02-20 19:36:00
10:56 AM,37.4,33.8,87,29.59,10.0,East,3.5,-,N/A,,Overcast,100,2013-02-20 19:56:00
11:16 AM,39.2,33.8,81,29.59,10.0,Calm,Calm,-,N/A,,Overcast,0,2013-02-20 20:16:00
11:36 AM,39.2,33.8,81,29.59,10.0,SE,4.6,-,N/A,,Overcast,130,2013-02-20 20:36:00
11:56 AM,37.4,32.0,81,29.58,7.0,Calm,Calm,-,0.01,,Overcast,0,2013-02-20 20:56:00
12:16 PM,37.4,33.8,87,29.58,7.0,Calm,Calm,-,N/A,,Overcast,0,2013-02-20 21:16:00
12:36 PM,37.4,33.8,87,29.57,7.0,SSW,6.9,-,0.01,,Overcast,210,2013-02-20 21:36:00
12:56 PM,39.2,30.2,70,29.57,5.0,SSW,10.4,17.3,0.01,,Overcast,210,2013-02-20 21:56:00
1:16 PM,39.2,33.8,81,29.56,5.0,South,8.1,-,N/A,,Overcast,190,2013-02-20 22:16:00
1:36 PM,39.2,32.0,75,29.56,5.0,South,8.1,-,N/A,,Overcast,180,2013-02-20 22:36:00
1:56 PM,37.4,32.0,81,29.55,5.0,South,8.1,-,0.01,,Overcast,170,2013-02-20 22:56:00
2:16 PM,37.4,32.0,81,29.54,5.0,East,6.9,-,N/A,,Overcast,90,2013-02-20 23:16:00
2:36 PM,37.4,33.8,87,29.54,5.0,Calm,Calm,-,0.01,,Overcast,0,2013-02-20 23:36:00
2:56 PM,37.4,32.0,81,29.54,5.0,NW,3.5,-,0.01,,Overcast,310,2013-02-20 23:56:00
3:16 PM,35.6,33.8,93,29.53,5.0,Calm,Calm,-,0.03,,Overcast,0,2013-02-21 00:16:00
3:36 PM,35.6,32.0,87,29.53,5.0,ESE,4.6,-,0.05,,Overcast,110,2013-02-21 00:36:00
3:56 PM,35.6,30.2,81,29.52,3.0,East,4.6,-,0.07,,Overcast,100,2013-02-21 00:56:00
4:16 PM,33.8,30.2,87,29.51,3.0,Calm,Calm,-,0.01,,Overcast,0,2013-02-21 01:16:00
4:36 PM,35.6,32.0,87,29.50,3.0,North,3.5,-,0.02,,Overcast,350,2013-02-21 01:36:00
4:56 PM,35.6,30.2,81,29.49,4.0,South,3.5,-,0.02,,Overcast,180,2013-02-21 01:56:00
5:16 PM,33.8,30.2,87,29.48,4.0,Calm,Calm,-,0.01,,Overcast,0,2013-02-21 02:16:00
5:36 PM,33.8,30.2,87,29.48,4.0,Calm,Calm,-,0.04,,Overcast,0,2013-02-21 02:36:00
5:56 PM,33.8,30.2,87,29.47,2.0,Calm,Calm,-,0.06,,Overcast,0,2013-02-21 02:56:00
6:16 PM,33.8,30.2,87,29.46,2.0,NW,3.5,-,N/A,,Overcast,320,2013-02-21 03:16:00
6:36 PM,33.8,30.2,87,29.45,2.0,Calm,Calm,-,0.01,,Overcast,0,2013-02-21 03:36:00
6:56 PM,33.8,30.2,87,29.44,3.0,Calm,Calm,-,0.02,,Overcast,0,2013-02-21 03:56:00
7:16 PM,33.8,30.2,87,29.43,3.0,Calm,Calm,-,0.01,,Overcast,0,2013-02-21 04:16:00
7:36 PM,33.8,32.0,93,29.42,3.0,East,5.8,-,0.02,,Overcast,90,2013-02-21 04:36:00
7:56 PM,35.6,30.2,81,29.41,5.0,East,5.8,-,0.04,,Overcast,90,2013-02-21 04:56:00
8:16 PM,35.6,32.0,87,29.41,5.0,East,6.9,-,0.01,,Overcast,90,2013-02-21 05:16:00
8:56 PM,35.6,30.2,81,29.39,5.0,East,6.9,-,0.03,,Overcast,100,2013-02-21 05:56:00
9:16 PM,35.6,30.2,81,29.38,5.0,ESE,10.4,23.0,N/A,,Overcast,110,2013-02-21 06:16:00
9:36 PM,35.6,30.2,81,29.38,5.0,ESE,11.5,21.9,0.01,,Overcast,120,2013-02-21 06:36:00
9:56 PM,35.6,30.2,81,29.38,5.0,East,10.4,19.6,0.02,,Overcast,90,2013-02-21 06:56:00
10:16 PM,35.6,30.2,81,29.38,10.0,SE,8.1,16.1,N/A,,Overcast,130,2013-02-21 07:16:00
10:36 PM,35.6,30.2,81,29.37,10.0,SE,5.8,-,N/A,,Overcast,130,2013-02-21 07:36:00
10:56 PM,35.6,30.2,81,29.37,10.0,ESE,9.2,16.1,0.01,,Overcast,120,2013-02-21 07:56:00
11:16 PM,35.6,30.2,81,29.37,10.0,ESE,3.5,16.1,0.01,,Overcast,120,2013-02-21 08:16:00
11:36 PM,35.6,30.2,81,29.37,10.0,Calm,Calm,-,0.01,,Overcast,0,2013-02-21 08:36:00
11:56 PM,35.6,30.2,81,29.37,10.0,WNW,3.5,-,0.01,,Overcast,300,2013-02-21 08:56:00